Regional Weather Roundup
Issued by NWS

Home | Current Version | Previous Version | Graphics & Text | Print | Product List | Glossary On
Versions: 1 2 3 4 5 6 7 8 9 10 11 12 13 14 15 16 17 18 19 20 21 22 23 24 25 26 27 28 29 30 31 32 33 34 35 36 37 38 39 40 41 42 43 44 45 46 47 48 49 50
000
ASUS44 KLIX 260411
RWRLA
LOUISIANA WEATHER ROUNDUP
NATIONAL WEATHER SERVICE NEW ORLEANS LA
1000 PM CST WED NOV 25 2020

NOTE: "FAIR" INDICATES FEW OR NO CLOUDS BELOW 12,000 FEET WITH NO
      SIGNIFICANT WEATHER AND/OR OBSTRUCTIONS TO VISIBILITY.
      SKY/WX - SKY CONDITION AND SIGNIFICANT WEATHER.
      TMP - AIR TEMPERATURE.    DP   - DEWPOINT TEMPERATURE.
      RH  - RELATIVE HUMIDITY.  PRES - PRESSURE.
      HX  - HEAT INDEX.         WCI  - WIND CHILL INDEX.

*  THESE STATIONS ARE NOT NWS OR FAA STATIONS AND ARE NOT UNDER
   NWS QUALITY CONTROL.

LAZ040-048-061>063-065-066-069-260500-
SOUTHEAST LOUISIANA

CITY           SKY/WX    TMP DP  RH WIND       PRES   REMARKS
N.O. INTL ARPT PTCLDY    71  68  90 S8        30.05S
N.O. LAKEFRONT MOCLDY    73  69  87 S9        30.05F
RESERVE*       CLOUDY    70  68  92 CALM      30.06S FOG
SLIDELL        CLEAR     71  68  90 S8        30.04F
BATON ROUGE    FOG       63  62  97 N3        30.05S VSB 1
BOOTHVILLE*    CLEAR     72  71  95 S5        30.09S
BELLE CHASSE*  CLOUDY    72  72 100 S7        30.05S
BOGALUSA*      CLOUDY    68  65  92 CALM      30.06S
GALLIANO*      MOCLDY    71  69  94 S3        30.07S
NEW ROADS*     FAIR      61  59  94 CALM      30.07R
GONZALES*      NOT AVBL
HAMMOND*       CLOUDY    64  64 100 CALM      30.06R FOG
HOUMA*         MOCLDY    69  69  98 S3        30.06S
PORT FOURCHON* NOT AVBL

$$

LAZ041-044-053-054-260500-
SOUTHWEST LOUISIANA

CITY           SKY/WX    TMP DP  RH WIND       PRES   REMARKS
LAKE CHARLES   PTCLDY    61  54  77 N5        30.07R
LAFAYETTE      PTCLDY    65  59  81 N3        30.06R
PATTERSON      FOG       64  64 100 CALM      30.07R VSB 1/2
SALT POINT       N/A     67  67 100 CALM      30.05S
NEW IBERIA     CLEAR     62  62 100 CALM      30.07R
CHENAULT AIRPK PTCLDY    63  52  67 N3        30.07R

$$

LAZ027-028-260500-
CENTRAL LOUISIANA

CITY           SKY/WX    TMP DP  RH WIND       PRES   REMARKS
FORT POLK      CLEAR     54  50  87 CALM      30.10R
ALEXANDRIA INT CLEAR     53  50  89 CALM      30.07R
ALEXANDRIA     CLEAR     51  49  92 CALM      30.08R

$$

LAZ001-002-260500-
NORTHWEST LOUISIANA

CITY           SKY/WX    TMP DP  RH WIND       PRES   REMARKS
SHREVEPORT     CLEAR     46  42  86 CALM      30.08R
BARKSDALE AFB  CLEAR     44  42  91 CALM      30.07S
DTN SHREVEPORT CLEAR     48  43  82 CALM      30.08S

$$

LAZ014-016-260500-
NORTHEAST LOUISIANA

CITY           SKY/WX    TMP DP  RH WIND       PRES   REMARKS
MONROE         CLEAR     49  47  93 CALM      30.10R FOG
TALLULAH       CLEAR     56  50  80 N3        30.09R

$$




USA.gov is the U.S. government's official web portal to all federal, state and local government web resources and services.